FW0610 Weather Reports


Display with metric or nautical units.
time (UTC)temp
F
wind
direction
speed
MPH
gust
MPH
rain 1hr
in
rain 24hr
in
rain mn
in
humidity
%
barometer
mb
20260506191538 44 333 2.0 9.0 0.03 0.67 0.47 81 1005.8
20260506190040 43 0 0.0 4.0 0.05 0.67 0.47 81 1006.1
20260506184550 43 288 1.0 6.0 0.06 0.66 0.46 82 1006.2
20260506183042 43 0 0.0 3.0 0.07 0.65 0.45 82 1006.3
20260506181540 43 0 0.0 3.0 0.08 0.64 0.44 82 1006.5
20260506180045 42 0 0.0 4.0 0.07 0.62 0.42 83 1006.7
20260506174539 42 261 2.0 9.0 0.07 0.60 0.40 84 1006.9
20260506173121 42 295 3.0 11.0 0.07 0.58 0.38 83 1006.9
20260506171543 43 298 2.0 10.0 0.06 0.56 0.36 84 1006.7
20260506170044 43 267 3.0 10.0 0.07 0.55 0.35 84 1007.0
20260506164541 44 287 4.0 11.0 0.06 0.52 0.33 84 1006.7
20260506163040 45 0 0.0 2.0 0.05 0.51 0.31 81 1006.4
20260506161539 45 0 0.0 3.0 0.06 0.50 0.30 82 1006.6
20260506160037 45 0 0.0 6.0 0.05 0.48 0.28 81 1006.8
20260506154549 46 0 0.0 2.0 0.04 0.47 0.27 81 1007.1
20260506153046 46 0 0.0 3.0 0.04 0.46 0.26 81 1007.3
20260506151541 46 0 0.0 3.0 0.03 0.44 0.24 80 1007.5
20260506150042 45 0 0.0 2.0 0.03 0.43 0.23 80 1007.4
20260506144541 45 15 1.0 5.0 0.03 0.43 0.23 81 1007.2
20260506143044 45 0 0.0 0.0 0.03 0.42 0.22 80 1007.6
20260506141540 45 0 1.0 4.0 0.03 0.41 0.21 80 1007.7
20260506140041 44 84 6.0 12.0 0.03 0.40 0.20 83 1007.8
20260506134539 44 21 2.0 9.0 0.05 0.40 0.20 83 1007.6
20260506133039 45 0 0.0 2.0 0.06 0.39 0.19 81 1007.9
20260506131546 45 0 0.0 4.0 0.06 0.38 0.18 82 1007.8
20260506130058 45 5 2.0 6.0 0.05 0.37 0.17 82 1008.0
20260506124545 46 0 3.0 9.0 0.03 0.35 0.15 82 1008.5
20260506123042 47 0 1.0 7.0 0.01 0.33 0.13 79 1008.5
20260506121539 48 0 0.0 0.0 0.00 0.32 0.12 78 1008.3
20260506120036 48 0 0.0 0.0 0.00 0.32 0.12 79 1008.1
20260506114542 47 0 0.0 2.0 0.01 0.32 0.12 79 1007.9
20260506113050 47 0 0.0 0.0 0.01 0.32 0.12 79 1008.0
20260506111541 47 0 0.0 0.0 0.01 0.32 0.12 80 1008.0
20260506110047 47 0 0.0 1.0 0.01 0.32 0.12 79 1008.0
20260506104543 47 0 0.0 1.0 0.00 0.31 0.11 80 1008.4
20260506103049 48 0 0.0 3.0 0.00 0.31 0.11 80 1008.1
20260506101552 48 293 0.0 3.0 0.00 0.31 0.11 79 1008.7
20260506100059 49 0 0.0 1.0 0.01 0.31 0.11 79 1008.4
20260506094540 49 0 0.0 0.0 0.01 0.31 0.11 79 1008.6
20260506093043 49 0 0.0 0.0 0.02 0.31 0.11 79 1008.6
20260506091538 49 0 0.0 0.0 0.02 0.31 0.11 79 1008.9
20260506090045 49 259 0.0 2.0 0.01 0.30 0.10 80 1008.9
20260506084604 49 0 1.0 6.0 0.01 0.30 0.10 79 1009.2
20260506083040 49 0 0.0 0.0 0.00 0.29 0.09 80 1008.7
20260506081546 49 0 0.0 0.0 0.02 0.29 0.09 80 1009.0
20260506073046 49 0 0.0 2.0 0.02 0.29 0.09 81 1008.6
20260506071541 49 0 0.0 0.0 0.00 0.27 0.07 82 1009.0
20260506061537 50 57 0.0 5.0 0.02 0.27 0.07 82 1009.1
20260506044637 51 0 0.0 9.0 0.06 0.24 0.04 86 1008.8
20260506043040 51 290 0.0 11.0 0.04 0.22 0.02 86 1008.9
20260506041538 52 320 0.0 9.0 0.03 0.21 0.01 86 1008.3
20260506040039 53 305 4.0 11.0 0.02 0.20 0.00 83 1008.1
20260506034602 54 0 0.0 4.0 0.00 0.18 0.18 78 1007.9
20260506033037 54 15 1.0 6.0 0.00 0.18 0.18 77 1007.7
20260506031543 54 0 0.0 1.0 0.00 0.18 0.18 78 1007.4
20260506030041 54 0 0.0 2.0 0.00 0.18 0.18 78 1006.9
20260506024541 54 0 0.0 1.0 0.00 0.18 0.18 78 1007.0
20260506023059 54 0 0.0 0.0 0.00 0.18 0.18 79 1007.4
20260506021536 54 0 0.0 2.0 0.00 0.18 0.18 79 1007.1
20260506020044 54 0 0.0 2.0 0.00 0.18 0.18 80 1006.7
20260506014542 55 0 0.0 0.0 0.00 0.18 0.18 79 1006.9
20260506013041 55 0 0.0 3.0 0.00 0.18 0.18 79 1006.7
20260506011539 54 0 0.0 0.0 0.00 0.18 0.18 80 1006.8
20260506010043 55 0 0.0 0.0 0.00 0.18 0.18 80 1006.6
20260506004557 55 0 0.0 0.0 0.00 0.18 0.18 81 1006.1
20260506003056 55 0 0.0 0.0 0.00 0.18 0.18 82 1006.0
20260506001541 55 0 0.0 0.0 0.00 0.18 0.18 83 1006.5
20260506000040 56 0 0.0 0.0 0.00 0.18 0.18 84 1006.2
20260505234557 57 0 0.0 0.0 0.00 0.18 0.18 83 1006.1
20260505233039 57 0 0.0 1.0 0.00 0.18 0.18 83 1005.9
20260505231537 57 0 0.0 0.0 0.00 0.18 0.18 84 1005.7
20260505230044 58 0 0.0 2.0 0.00 0.18 0.18 85 1005.5
20260505224541 58 0 0.0 1.0 0.00 0.18 0.18 85 1005.7
20260505223039 59 0 1.0 3.0 0.01 0.18 0.18 85 1005.5
20260505221539 59 37 1.0 4.0 0.01 0.18 0.18 86 1004.9
20260505220054 59 0 0.0 4.0 0.01 0.18 0.18 86 1005.4
20260505214544 60 301 0.0 3.0 0.01 0.18 0.18 86 1005.4
20260505213042 60 254 1.0 9.0 0.00 0.17 0.17 86 1005.7
20260505211600 60 253 5.0 15.0 0.04 0.17 0.17 83 1005.5